Tracking 19794 objects as of 21-Jul-2019
HD Live streaming from Space Station
objects crossing your sky now

LEMUR 2 ROBMOORE

Track LEMUR 2 ROBMOORE now!
10-day predictions
LEMUR 2 ROBMOORE is classified as:


NORAD ID: 42754
Int'l Code: 2017-019D
Perigee: 475.2 km
Apogee: 488.7 km
Inclination: 51.6 °
Period: 94.1 minutes
Semi major axis: 6852 km
RCS: Unknown
Launch date: April 18, 2017
Source: United States (US)
Launch site: AIR FORCE EASTERN TEST RANGE (AFETR)
aabbcc
Your satellite tracking list
Your tracking list is empty




NASA's NSSDC Master Catalog

Two Line Element Set (TLE):
1 42754U 17019D   19201.86002104 +.00000809 +00000-0 +39415-4 0  9997
2 42754 051.6421 335.2196 0009845 193.9519 166.1191 15.30350552118111
Source of the keplerian elements: AFSPC